Regional Weather Roundup
Issued by NWS

Home | Current Version | Previous Version | Text Only | Print | Product List | Glossary Off
Versions: 1 2 3 4 5 6 7 8 9 10 11 12 13 14 15 16 17 18 19 20 21 22 23 24 25 26 27 28 29 30 31 32 33 34 35 36 37 38 39 40 41 42 43 44 45 46 47 48 49 50

000
ASUS43 KTOP 031059
RWRKS

WEATHER ROUNDUP FOR KANSAS
NATIONAL WEATHER SERVICE GOODLAND KS
600 AM CDT THU SEP 03 2015

NOTE:  "FAIR" INDICATES FEW OR NO CLOUDS BELOW 12,000 FEET WITH NO
SIGNIFICANT WEATHER AND/OR OBSTRUCTIONS TO VISIBILITY.

KSZ001>006-013>018-027>032-041>047-031200-
NORTHWEST KANSAS

CITY           SKY/WX    TMP DP  RH WIND       PRES   REMARKS
GOODLAND       CLEAR     63  54  72 W6        29.88R
HAYS           PTCLDY    72  55  56 S10       29.86S
HILL CITY      PTCLDY    74  58  57 S9        29.84R
RUSSELL        PTCLDY    75  60  59 S18       29.85R
$$

KSZ061>065-074>080-084>089-031200-
SOUTHWEST KANSAS

CITY           SKY/WX    TMP DP  RH WIND       PRES   REMARKS
DODGE CITY     PTCLDY    70  56  61 S12       29.90S
ELKHART          N/A     68  52  56 SW7         N/A
GARDEN CITY    CLEAR     65  57  75 SE8       29.88S
GREAT BEND     CLEAR     73  57  56 S14       29.88S
LIBERAL        PTCLDY    68  54  60 S9        29.91S
$$

KSZ066>073-081>083-090>101-031200-
SOUTHEAST KANSAS

CITY           SKY/WX    TMP DP  RH WIND       PRES   REMARKS
CHANUTE        PTCLDY    69  67  93 S7        29.96S
COFFEYVILLE    CLEAR     69  67  93 S5        29.96S
HUTCHINSON     CLEAR     73  61  65 S10       29.91S
NEWTON         CLEAR     70  59  68 S8        29.95S
PARSONS        CLEAR     71  68  90 S3        29.97S
WICHITA INTL   PTCLDY    71  63  75 S8        29.93R
WICHITA JABRA  CLEAR     70  63  78 S9        29.93S
WICHITA MCCONL CLEAR     71  62  72 SE9       29.94R
WINFIELD       CLEAR     70  64  81 S7        29.96R
$$

KSZ007>012-019>026-033>040-048>060-102>105-031200-
NORTHEAST KANSAS

CITY           SKY/WX    TMP DP  RH WIND       PRES   REMARKS
CONCORDIA      PTCLDY    75  62  64 S17       29.85S
EMPORIA        PTCLDY    70  66  87 S12       29.93S
LAWRENCE       CLEAR     73  67  81 SE6       29.93S
MANHATTAN      PTCLDY    75  64  68 SW9       29.88S
OLATHE IND     CLEAR     71  67  87 S7        29.96R
OLATHE EXE     CLEAR     70  67  90 S6        29.95S
SALINA         PTCLDY    77  61  57 S14       29.87S
TOPEKA BILLARD PTCLDY    75  67  76 S3        29.92R
TOPEKA FORBES  PTCLDY    74  67  78 S10       29.92S
$$


USA.gov is the U.S. government's official web portal to all federal, state and local government web resources and services.